Regional Weather Roundup
Issued by NWS

Home | Current Version | Previous Version | Text Only | Print | Product List | Glossary On
Versions: 1 2 3 4 5 6 7 8 9 10 11 12 13 14 15 16 17 18 19 20 21 22 23 24 25 26 27 28 29 30 31 32 33 34 35 36 37 38 39 40 41 42 43 44 45 46 47 48 49 50
000
ASUS45 KBOI 271210
RWRID
WEATHER ROUNDUP FOR IDAHO
NATIONAL WEATHER SERVICE BOISE ID
500 AM MST THU NOV 27 2014

NOTE: "FAIR" INDICATES FEW OR NO CLOUDS BELOW 12000 FEET
WITH NO SIGNIFICANT WEATHER AND/OR OBSTRUCTIONS TO VISIBILITY

IDZ012-014-271300-
SOUTHWEST IDAHO


CITY           SKY/WX    TMP DP  RH WIND       PRES   REMARKS
BOISE          CLOUDY    42  37  82 CALM      30.14F
CALDWELL       NOT AVBL
MOUNTAIN HOME  CLOUDY    43  43  98 E12       30.15S
$$

IDZ016-017-271300-
SOUTHCENTRAL IDAHO


CITY           SKY/WX    TMP DP  RH WIND       PRES   REMARKS
BURLEY         CLOUDY    47  28  47 W6        30.18F
JEROME         CLOUDY    44  31  60 E6        30.19F
TWIN FALLS     CLOUDY    52  29  41 S12       30.19F
$$

IDZ019>023-271300-
SOUTHEAST IDAHO


CITY           SKY/WX    TMP DP  RH WIND       PRES   REMARKS
IDAHO FALLS    CLOUDY    35  30  82 NE3       30.22F
POCATELLO      CLEAR     50  27  40 S12G17    30.20F
REXBURG        CLOUDY    33  30  88 CALM      30.22F
$$

IDZ006-010-011-018-031-032-271300-
CENTRAL IDAHO MOUNTAINS


CITY           SKY/WX    TMP DP  RH WIND       PRES   REMARKS
MCCALL         LGT RAIN  35  34  96 NW8       30.17R WCI  29
HAILEY         CLOUDY    34  28  80 NW9       30.23F WCI  26
STANLEY          N/A     35  23  61 E5        30.21F WCI  31
SALMON         CLOUDY    30  28  93 CALM      30.16S
CHALLIS        MOCLDY    32  27  81 E3        30.16S
$$

IDZ002-004-006-007-026-271300-
NORTHERN IDAHO


CITY           SKY/WX    TMP DP  RH WIND       PRES   REMARKS
LEWISTON       MOCLDY    48  41  76 NE7       29.96F
LOWELL           N/A     40  39  97 CALM      30.10F
COEUR D`ALENE  CLOUDY    48  39  71 S12       29.88F
MULLAN PASS    LGT RAIN  36  32  85 SW12G29   29.95F WCI  28
$$



USA.gov is the U.S. government's official web portal to all federal, state and local government web resources and services.